Weather History for Pratica di Mare, Italy

Change the Weather History Date:

Sunday, April 21, 2013

  Actual Average Record
Temperature  
Mean Temperature 56 °F -  
Max Temperature 63 °F 68 °F 75 °F (2007)
Min Temperature 50 °F 50 °F 44 °F (2004)
Degree Days  
Heating Degree Days 8    
Growing Degree Days 6 (Base 50)    
Moisture  
Dew Point 47 °F    
Average Humidity 69    
Maximum Humidity 88    
Minimum Humidity 42    
Precipitation  
Precipitation 0.02 in 0.06 in - ()
Sea Level Pressure  
Sea Level Pressure 30.00 in    
Wind  
Wind Speed 6 mph ()    
Max Wind Speed 10 mph    
Max Gust Speed -    
Visibility 7.4 miles    
Events Rain , Thunderstorm    
Averages and records for this station are not official NWS values.
T = Trace of Precipitation, MM = Missing Value Source: Averaged Metar Reports

Daily Weather History Graph

Daily Weather History Graph

Search for Another Location

Airport:

Trip Planner

Search our weather history database for the weather conditions in past years. The results will help you decide how hot, cold, wet, or windy it might be!

Date:

Astronomy

Apr. 21, 2013 Rise Set
Actual Time 6:21 AM CEST 7:57 PM CEST
Civil Twilight 5:51 AM CEST 8:26 PM CEST
Nautical Twilight 5:16 AM CEST 9:02 PM CEST
Astronomical Twilight 4:38 AM CEST 9:40 PM CEST
Moon 3:21 PM CEST (4/21) 3:37 AM CEST (4/21)
Length of Visible Light 14h 35m
Length of Day
13h 36m
Waxing Gibbous, 77% of the Moon is Illuminated
Apr 21
Waxing Gibbous
Apr 25
Full
May 2
Last Quarter
May 10
New
May 18
First Quarter

Hourly Weather History & Observations

Time (CEST) Temp. Dew Point Humidity Pressure Visibility Wind Dir Wind Speed Gust Speed Precip Events Conditions
2:00 AM 52 °F 48 °F 82% 30.04 in 6 mi East 6.9 mph - -   Partly Cloudy
2:55 AM 51.8 °F 48.2 °F 88% 30.01 in 6.2 mi East 9.2 mph - N/A   Scattered Clouds
3:55 AM 51.8 °F 48.2 °F 88% 30.01 in 6.2 mi East 10.4 mph - N/A   Scattered Clouds
4:55 AM 51.8 °F 48.2 °F 88% 30.01 in 6.2 mi East 5.8 mph - N/A   Scattered Clouds
5:00 AM 51 °F 49 °F 88% 30.01 in 6 mi East 5.8 mph - -   Partly Cloudy
5:55 AM 51.8 °F 48.2 °F 88% 29.98 in 6.2 mi East 9.2 mph - N/A   Scattered Clouds
6:55 AM 53.6 °F 50.0 °F 88% 30.01 in 6.2 mi West 9.2 mph - N/A   Scattered Clouds
7:55 AM 55.4 °F 48.2 °F 77% 30.01 in 6.2 mi North 3.5 mph - N/A   Scattered Clouds
8:00 AM 55 °F 48 °F 71% 30.02 in 6 mi North 3.5 mph - -   Mostly Cloudy
8:55 AM 57.2 °F 50.0 °F 77% 30.01 in 6.2 mi West 6.9 mph - N/A   Scattered Clouds
9:55 AM 59.0 °F 48.2 °F 67% 30.01 in 6.2 mi WSW 5.8 mph - N/A   Scattered Clouds
10:55 AM 60.8 °F 44.6 °F 55% 30.01 in 6.2 mi SW 5.8 mph - N/A   Scattered Clouds
11:00 AM 60 °F 45 °F 47% 30.03 in 12 mi SW 5.8 mph - -   Partly Cloudy
11:55 AM 60.8 °F 46.4 °F 59% 30.01 in 6.2 mi SSW 8.1 mph - N/A   Scattered Clouds
12:55 PM 62.6 °F 44.6 °F 52% 30.01 in 6.2 mi SW 8.1 mph - N/A   Partly Cloudy
2:00 PM 62 °F 45 °F 42% 30.02 in 16 mi SW 8.1 mph - -   Scattered Clouds
2:55 PM 60.8 °F 46.4 °F 59% 30.01 in 6.2 mi WSW 8.1 mph - N/A   Partly Cloudy
3:55 PM 62.6 °F 44.6 °F 52% 29.98 in 6.2 mi SW 9.2 mph - N/A   Partly Cloudy
4:55 PM 60.8 °F 44.6 °F 55% 29.98 in 6.2 mi WSW 9.2 mph - N/A   Partly Cloudy
5:00 PM 60 °F 44 °F 45% 29.99 in 16 mi WSW 9.2 mph - -   Scattered Clouds
5:55 PM 60.8 °F 42.8 °F 52% 29.95 in 6.2 mi SW 8.1 mph - N/A   Partly Cloudy
6:55 PM 57.2 °F 42.8 °F 59% 29.95 in 6.2 mi WSW 6.9 mph - N/A   Partly Cloudy
8:00 PM 55 °F 49 °F 74% 29.96 in 12 mi WSW 2.3 mph - -   Partly Cloudy
8:55 PM 55.4 °F 48.2 °F 77% 29.95 in 6.2 mi SSW 4.6 mph - N/A Thunderstorm Scattered Clouds
9:55 PM 55.4 °F 50.0 °F 82% 29.95 in 6.2 mi West 4.6 mph - N/A Thunderstorm Scattered Clouds
11:00 PM 54 °F 51 °F 84% 29.96 in 6 mi NE 3.5 mph - - Rain Light Rain